Погода в Красновидово

Россия / Республика Татарстан     55°21′41″N   49°04′37″E
темп.,
°C
ветер,
м/с
пор.,
м/с
влажн.,
%
обл.,
%
осадки,
мм/ч
давл.,
гПа
погр.,
м
2 июля, сб
сб200:00+10св3109720 0.0 1014235
03:00+10ссв4109833 0.0 1015204
06:00+13св59875 0.0 1015283
09:00+18св6868100 0.0 1015763
12:00+20св665717 0.0 10151369
15:00+21св56545 0.0 10141782
18:00+19св47665 0.0 1013387
21:00+14ссв33745 0.0 101422
3 июля, вс
вс300:00+12с33855 0.0 101334
03:00+11с33894 0.0 101341
06:00+15ссв36795 0.0 1013193
09:00+19ссв44645 0.0 1012715
12:00+22ссв45547 0.0 10121610
15:00+21ссв5659100 0.1 10111464
18:00+18ссв5981100 0.3 1012553
21:00+14с3108872 0.3 1012279
4 июля, пн
пн400:00+12с3993100 0.0 1013199
03:00+11с389164 0.0 1013139
06:00+16с38775 0.0 1013299
09:00+19ссв686093 0.0 1013998
12:00+21ссв675299 0.0 10141826
15:00+20ссв5864100 0.0 1014746
18:00+20св376885 0.0 1014390
21:00+17ссв2369100 0.0 101659
5 июля, вт
вт500:00+14с227811 0.0 101617
03:00+12сз227935 0.0 101717
06:00+16ссз377542 0.0 1017204
09:00+20с455972 0.0 1017607
12:00+23с344859 0.0 10171839
15:00+24ссв2444100 0.0 10172035
18:00+23ю11615 0.0 1016124
21:00+17зюз11775 0.0 101711
6 июля, ср
ср600:00+16з33775 0.0 101727
03:00+14з34805 0.0 101862
06:00+18зсз34760 0.0 1018142
09:00+23з33610 0.0 1017457
12:00+26з34540 0.0 10171154
15:00+27зсз445120 0.0 10162057
18:00+26юз23610 0.0 101675
21:00+19зюз48760 0.1 1017137